Weather in Talinka

Russia / Khanty-Mansi Autonomous Okrug — Yugra     61°32′59″N   66°27′09″E
temp.,
°C
wind,
m/s
gust,
m/s
humid.,
%
clouds,
%
prec.,
mm/h
press.,
hPa
HPBL,
m
26 february, fri
fri2623:00−28nnw1110053 0.0 102719
02:00−29wnw129979 0.0 102619
05:00−29w119857 0.0 102719
08:00−29wsw129825 0.0 102719
11:00−22sw139212 0.0 1027228
14:00−18ssw238882 0.0 1027372
17:00−20ssw249572 0.0 1026114
20:00−26ssw23970 0.0 102650
27 february, sat
sat2723:00−27ssw22985 0.0 102623
02:00−26s229873 0.0 102623
05:00−27s229866 0.0 102622
08:00−27s229866 0.0 102636
11:00−22sse249561 0.0 1026245
14:00−18sse249276 0.0 1025333
17:00−20se259788 0.0 1025179
20:00−26se239958 0.0 102461
28 february, sun
sun2823:00−27se229931 0.0 102522
02:00−28ese22998 0.0 102424
05:00−28ese239928 0.0 102333
08:00−29e239956 0.0 102355
11:00−23e259433 0.0 1022253
14:00−20e35910 0.0 1021323
17:00−21e26947 0.0 1020276
20:00−25e239825 0.0 102062
1 march, mon
mon123:00−26ene229943 0.0 102021
02:00−27ne2210063 0.0 102019
05:00−27ne229964 0.0 102019
08:00−28ne129963 0.0 101919
11:00−21ene129362 0.0 1019206
14:00−16ese118885 0.0 1017277
17:00−18se119484 0.0 101620
20:00−22s239812 0.0 101522
2 march, tue
tue223:00−23ssw24966 0.0 101476
02:00−23ssw379713 0.0 1012155
05:00−21ssw399624 0.0 1010243
08:00−19s4109575 0.0 1007294
11:00−16s5109188 0.0 1005365
14:00−14s51091100 0.1 1003446
17:00−13ssw51093100 0.4 1002602
20:00−12s41094100 0.7 1001626